UAL131U KEWR-RJTT

Flight info

Callsign UAL131U
Flight time N/A
Altitude 33000
Route GREKI DCT JUDDS DCT MARTN DCT 45N073W/N0503F300 50N075W 55N078W 60N086W/N0501F320 64N095W 68N110W 69N120W DCT ADREW DCT 68N150W/N0501F340 DCT OME DCT ROCET R338 HEDMI M523 HIXOR/N0503F360 M523 IPGUD Y800 ESNIP Y810 AKRIT Y807 POLIX
Aircraft B789/H-SDE1E2E3FGHIJ2J3J4J5M1RWXY/LB1D1

Departure

Time 2026-05-05 16:12
Airport Newark Liberty International Airport (KEWR)

Arrival

Time N/A
Airport Tokyo Haneda International Airport (RJTT)
Time Latitude Longitude Altitude Speed Heading
2026-05-05 15:32 40.69139 -74.17364 27 ft 0 kts 322°
2026-05-05 16:01 40.69134 -74.17360 32 ft 2 kts 322°
2026-05-05 16:01 40.69125 -74.17344 30 ft 2 kts 298°
2026-05-05 16:02 40.69118 -74.17326 41 ft 2 kts 297°
2026-05-05 16:02 40.69111 -74.17307 39 ft 2 kts 297°
2026-05-05 16:02 40.69102 -74.17287 21 ft 3 kts 298°
2026-05-05 16:02 40.69091 -74.17262 26 ft 4 kts 326°
2026-05-05 16:03 40.69067 -74.17258 26 ft 3 kts 10°
2026-05-05 16:03 40.69060 -74.17261 26 ft 0 kts 27°
2026-05-05 16:06 40.69078 -74.17248 25 ft 5 kts 27°
2026-05-05 16:06 40.69125 -74.17217 27 ft 10 kts 27°
2026-05-05 16:06 40.69198 -74.17169 27 ft 13 kts 26°
2026-05-05 16:07 40.69283 -74.17116 27 ft 14 kts 25°
2026-05-05 16:07 40.69378 -74.17056 27 ft 16 kts 25°
2026-05-05 16:07 40.69478 -74.16993 27 ft 16 kts 25°
2026-05-05 16:07 40.69581 -74.16927 27 ft 13 kts 26°
2026-05-05 16:08 40.69663 -74.16875 27 ft 13 kts 26°
2026-05-05 16:08 40.69747 -74.16821 27 ft 14 kts 26°
2026-05-05 16:08 40.69835 -74.16773 27 ft 13 kts 14°
2026-05-05 16:08 40.69924 -74.16760 27 ft 14 kts
2026-05-05 16:09 40.69989 -74.16736 27 ft 5 kts 50°
2026-05-05 16:09 40.69997 -74.16703 27 ft 4 kts 83°
2026-05-05 16:09 40.69994 -74.16660 27 ft 7 kts 96°
2026-05-05 16:09 40.69988 -74.16571 26 ft 13 kts 95°
2026-05-05 16:10 40.69979 -74.16445 24 ft 10 kts 107°
2026-05-05 16:10 40.69949 -74.16421 25 ft 3 kts 174°
2026-05-05 16:10 40.69933 -74.16426 28 ft 3 kts 202°
2026-05-05 16:10 40.69875 -74.16461 29 ft 21 kts 205°
2026-05-05 16:11 40.69594 -74.16639 28 ft 70 kts 206°
2026-05-05 16:11 40.67123 -74.18213 152 ft 172 kts 211°
2026-05-05 16:12 40.66100 -74.18797 682 ft 160 kts 204°
2026-05-05 16:12 40.63927 -74.20074 1066 ft 187 kts 206°
2026-05-05 16:13 40.60227 -74.20573 1555 ft 241 kts 146°
2026-05-05 16:13 40.59220 -74.18723 1853 ft 254 kts 121°
2026-05-05 16:13 40.58497 -74.16617 2375 ft 254 kts 118°
2026-05-05 16:14 40.57664 -74.12007 3006 ft 268 kts 95°
2026-05-05 16:14 40.58268 -74.07006 3521 ft 290 kts 63°
2026-05-05 16:15 40.61294 -74.03753 4284 ft 284 kts 27°
2026-05-05 16:15 40.64707 -74.01025 5118 ft 292 kts 30°
2026-05-05 16:16 40.68194 -73.98121 6120 ft 298 kts 29°
2026-05-05 16:16 40.71696 -73.95247 7014 ft 303 kts 29°
2026-05-05 16:17 40.75302 -73.92266 7888 ft 308 kts 29°
2026-05-05 16:17 40.77135 -73.90753 8328 ft 311 kts 28°
2026-05-05 16:18 40.80828 -73.87699 9268 ft 315 kts 28°
2026-05-05 16:18 40.82690 -73.86157 9726 ft 318 kts 28°
2026-05-05 16:18 40.86484 -73.83016 10241 ft 335 kts 28°
2026-05-05 16:19 40.88509 -73.81341 10345 ft 350 kts 28°
2026-05-05 16:19 40.90612 -73.79593 10469 ft 364 kts 28°
2026-05-05 16:19 40.95063 -73.75890 10760 ft 391 kts 28°
2026-05-05 16:20 40.99699 -73.72027 11624 ft 399 kts 28°
2026-05-05 16:20 41.04419 -73.68092 12566 ft 403 kts 28°
2026-05-05 16:21 41.09193 -73.64102 13504 ft 407 kts 28°
2026-05-05 16:22 41.16395 -73.58073 14767 ft 412 kts 28°
2026-05-05 16:22 41.21104 -73.54120 15537 ft 416 kts 28°
2026-05-05 16:23 41.26003 -73.50003 16337 ft 419 kts 28°
2026-05-05 16:23 41.28476 -73.47921 16714 ft 421 kts 28°
2026-05-05 16:23 41.33416 -73.43757 17475 ft 424 kts 28°
2026-05-05 16:24 41.35911 -73.41651 17827 ft 427 kts 28°
2026-05-05 16:24 41.38461 -73.39497 18194 ft 429 kts 28°
2026-05-05 16:24 41.43485 -73.35247 18839 ft 432 kts 28°
2026-05-05 16:25 41.46021 -73.33097 19156 ft 433 kts 28°
2026-05-05 16:25 41.50655 -73.27873 19744 ft 441 kts 43°
2026-05-05 16:25 41.52821 -73.24972 20065 ft 442 kts 41°
2026-05-05 16:26 41.57215 -73.19198 20692 ft 445 kts 42°
2026-05-05 16:26 41.61988 -73.14052 21198 ft 440 kts 24°
2026-05-05 16:27 41.64817 -73.12564 21500 ft 434 kts 12°
2026-05-05 16:27 41.67775 -73.11892 21766 ft 430 kts 360°
2026-05-05 16:27 41.70745 -73.12034 22040 ft 426 kts 349°
2026-05-05 16:27 41.73685 -73.12550 22295 ft 427 kts 349°
2026-05-05 16:28 41.76642 -73.13062 22554 ft 429 kts 349°
2026-05-05 16:28 41.79607 -73.13560 22809 ft 431 kts 349°
2026-05-05 16:28 41.82588 -73.14060 23064 ft 432 kts 349°
2026-05-05 16:28 41.85573 -73.14568 23339 ft 434 kts 349°
2026-05-05 16:29 41.88576 -73.15083 23560 ft 435 kts 349°
2026-05-05 16:29 41.91590 -73.15596 23749 ft 437 kts 349°
2026-05-05 16:29 41.94609 -73.16109 23966 ft 438 kts 349°
2026-05-05 16:29 41.97641 -73.16625 24138 ft 440 kts 349°
2026-05-05 16:30 42.00682 -73.17146 24324 ft 441 kts 349°
2026-05-05 16:30 42.03734 -73.17668 24501 ft 443 kts 349°
2026-05-05 16:30 42.06755 -73.18184 24714 ft 444 kts 349°
2026-05-05 16:30 42.09825 -73.18710 24909 ft 445 kts 349°
2026-05-05 16:31 42.12902 -73.19238 25095 ft 446 kts 349°
2026-05-05 16:31 42.15985 -73.19767 25285 ft 447 kts 349°
2026-05-05 16:31 42.19079 -73.20299 25484 ft 449 kts 349°
2026-05-05 16:31 42.22169 -73.20830 25688 ft 450 kts 349°
2026-05-05 16:32 42.25281 -73.21365 25879 ft 451 kts 349°
2026-05-05 16:32 42.28400 -73.21903 26066 ft 452 kts 349°
2026-05-05 16:32 42.31524 -73.22442 26285 ft 453 kts 349°
2026-05-05 16:32 42.34658 -73.22983 26493 ft 454 kts 349°
2026-05-05 16:33 42.37798 -73.23525 26695 ft 456 kts 349°
2026-05-05 16:33 42.40946 -73.24070 26887 ft 457 kts 349°
2026-05-05 16:33 42.44107 -73.24617 27108 ft 458 kts 349°
2026-05-05 16:33 42.47280 -73.25167 27309 ft 459 kts 349°
2026-05-05 16:34 42.50455 -73.25718 27496 ft 460 kts 349°
2026-05-05 16:34 42.53632 -73.26270 27684 ft 461 kts 349°
2026-05-05 16:34 42.55743 -73.26637 27828 ft 462 kts 349°
2026-05-05 16:34 42.60016 -73.26871 28009 ft 469 kts
2026-05-05 16:35 42.63270 -73.26487 28232 ft 470 kts
2026-05-05 16:35 42.66531 -73.26127 28416 ft 471 kts
2026-05-05 16:35 42.68743 -73.25899 28573 ft 471 kts
2026-05-05 16:35 42.72017 -73.25559 28783 ft 472 kts
2026-05-05 16:36 42.76370 -73.25083 29001 ft 474 kts
2026-05-05 16:36 42.79659 -73.24720 29186 ft 475 kts
2026-05-05 16:36 42.81841 -73.24485 29346 ft 475 kts
2026-05-05 16:36 42.85140 -73.24134 29579 ft 476 kts
2026-05-05 16:37 42.87334 -73.23897 29709 ft 477 kts
2026-05-05 16:38 43.02079 -73.22293 30561 ft 482 kts
2026-05-05 16:38 43.03206 -73.22170 30607 ft 482 kts
2026-05-05 16:38 43.08783 -73.21561 30890 ft 484 kts
2026-05-05 16:38 43.12133 -73.21195 31073 ft 485 kts
2026-05-05 16:39 43.15507 -73.20825 31273 ft 485 kts
2026-05-05 16:39 43.18864 -73.20457 31519 ft 484 kts 360°
2026-05-05 16:39 43.22230 -73.20089 31771 ft 484 kts 360°
2026-05-05 16:39 43.25587 -73.19721 32065 ft 483 kts 360°
2026-05-05 16:40 43.28931 -73.19353 32337 ft 483 kts 360°
2026-05-05 16:40 43.32282 -73.18985 32596 ft 482 kts 360°
2026-05-05 16:40 43.35639 -73.18616 32777 ft 484 kts 360°
2026-05-05 16:40 43.39009 -73.18246 32762 ft 486 kts 360°
2026-05-05 16:41 43.45701 -73.17502 32775 ft 480 kts 359°
2026-05-05 16:41 43.52357 -73.16770 32763 ft 479 kts 359°
2026-05-05 16:42 43.58958 -73.16036 32767 ft 479 kts 359°
2026-05-05 16:42 43.65609 -73.15298 32773 ft 479 kts 359°
2026-05-05 16:43 43.72249 -73.14558 32768 ft 479 kts 359°
2026-05-05 16:43 43.75570 -73.14187 32197 ft 480 kts 359°
2026-05-05 16:43 43.78905 -73.13817 32316 ft 482 kts 359°
2026-05-05 16:44 43.82261 -73.13443 32432 ft 485 kts 359°
2026-05-05 16:44 43.85631 -73.13065 32560 ft 487 kts 359°
2026-05-05 16:44 43.89022 -73.12683 32695 ft 490 kts 359°
2026-05-05 16:44 43.92427 -73.12302 32732 ft 494 kts 359°
2026-05-05 16:45 43.99359 -73.11526 32735 ft 504 kts 359°
2026-05-05 16:45 44.06372 -73.10731 32725 ft 507 kts 359°
2026-05-05 16:46 44.13427 -73.09936 32727 ft 508 kts 359°
2026-05-05 16:46 44.20435 -73.09142 32717 ft 509 kts 359°
2026-05-05 16:47 44.27492 -73.08342 32717 ft 510 kts 359°
2026-05-05 16:47 44.34574 -73.07535 32709 ft 510 kts 358°
2026-05-05 16:48 44.41646 -73.06730 32712 ft 511 kts 358°
2026-05-05 16:48 44.48738 -73.05919 32705 ft 512 kts 358°
2026-05-05 16:49 44.55844 -73.05105 32714 ft 513 kts 358°
2026-05-05 16:49 44.62969 -73.04287 32705 ft 514 kts 358°
2026-05-05 16:50 44.70105 -73.03465 32694 ft 514 kts 358°
2026-05-05 16:50 44.77185 -73.02648 32663 ft 515 kts 358°
2026-05-05 16:51 44.84327 -73.01821 32657 ft 515 kts 358°
2026-05-05 16:51 44.91468 -73.00993 32653 ft 515 kts 358°
2026-05-05 16:52 44.98605 -73.00296 32624 ft 509 kts 351°
2026-05-05 16:52 45.02086 -73.00805 32642 ft 498 kts 342°
2026-05-05 16:52 45.05416 -73.01963 32659 ft 493 kts 338°
2026-05-05 16:53 45.12084 -73.04400 32661 ft 495 kts 338°
2026-05-05 16:53 45.18759 -73.06823 32662 ft 495 kts 338°
2026-05-05 16:54 45.25444 -73.09279 32657 ft 496 kts 338°
2026-05-05 16:54 45.32135 -73.11724 32645 ft 496 kts 338°
2026-05-05 16:55 45.38832 -73.14191 32637 ft 497 kts 338°
2026-05-05 16:55 45.45491 -73.16642 32634 ft 498 kts 338°
2026-05-05 16:56 45.52201 -73.19122 32631 ft 499 kts 338°
2026-05-05 16:56 45.58928 -73.21611 32628 ft 500 kts 338°
2026-05-05 16:57 45.65662 -73.24112 32630 ft 501 kts 338°
2026-05-05 16:57 45.72411 -73.26623 32627 ft 502 kts 338°
2026-05-05 16:58 45.79172 -73.29144 32627 ft 503 kts 337°
2026-05-05 16:58 45.85948 -73.31679 32612 ft 503 kts 337°
2026-05-05 16:59 45.92722 -73.34218 32617 ft 503 kts 337°
2026-05-05 16:59 45.99489 -73.36762 32617 ft 504 kts 337°
2026-05-05 17:00 46.06287 -73.39324 32610 ft 504 kts 337°
2026-05-05 17:00 46.09683 -73.40606 32612 ft 505 kts 337°
2026-05-05 17:01 46.19890 -73.44469 32602 ft 505 kts 336°
2026-05-05 17:01 46.26686 -73.47050 32598 ft 505 kts 336°
2026-05-05 17:02 46.32335 -73.49200 32598 ft 505 kts 336°
2026-05-05 17:02 46.35732 -73.50494 32600 ft 504 kts 336°
2026-05-05 17:03 46.45903 -73.54384 32597 ft 504 kts 336°
2026-05-05 17:03 46.53780 -73.57404 32586 ft 503 kts 336°
2026-05-05 17:04 46.59449 -73.59585 32585 ft 504 kts 336°
2026-05-05 17:04 46.63907 -73.61311 33237 ft 482 kts 341°
2026-05-05 17:04 46.67094 -73.62525 33090 ft 465 kts 341°
2026-05-05 17:05 46.70170 -73.63705 32930 ft 451 kts 340°
2026-05-05 17:05 46.72161 -73.64479 32824 ft 443 kts 340°
2026-05-05 17:05 46.75114 -73.65634 32643 ft 437 kts 340°
2026-05-05 17:05 46.78063 -73.66782 32568 ft 440 kts 340°
2026-05-05 17:06 46.85080 -73.69501 32573 ft 452 kts 340°
2026-05-05 17:06 46.90142 -73.71471 32573 ft 454 kts 340°
2026-05-05 17:07 46.97231 -73.74235 32570 ft 453 kts 340°
2026-05-05 17:07 47.03336 -73.76624 32566 ft 454 kts 340°
2026-05-05 17:08 47.09439 -73.79015 32571 ft 454 kts 340°
2026-05-05 17:08 47.15557 -73.81420 32562 ft 456 kts 340°
2026-05-05 17:09 47.21681 -73.83831 32567 ft 456 kts 340°
2026-05-05 17:09 47.27827 -73.86258 32562 ft 457 kts 340°
2026-05-05 17:10 47.32932 -73.88278 32563 ft 457 kts 340°
2026-05-05 17:10 47.40129 -73.91133 32550 ft 458 kts 340°
2026-05-05 17:11 47.45249 -73.93168 32557 ft 459 kts 340°
2026-05-05 17:11 47.51429 -73.95631 32549 ft 460 kts 340°
2026-05-05 17:12 47.57597 -73.98094 32546 ft 460 kts 340°
2026-05-05 17:12 47.64787 -74.00974 32541 ft 460 kts 340°
2026-05-05 17:13 47.69927 -74.03038 32544 ft 461 kts 340°
2026-05-05 17:13 47.76119 -74.05530 32543 ft 462 kts 340°
2026-05-05 17:14 47.82341 -74.08040 32550 ft 463 kts 340°
2026-05-05 17:14 47.88566 -74.10558 32545 ft 464 kts 340°
2026-05-05 17:15 47.94817 -74.13091 32544 ft 465 kts 340°
2026-05-05 17:15 48.01075 -74.15628 32169 ft 469 kts 333°
2026-05-05 17:16 48.07415 -74.18229 32368 ft 475 kts 334°
2026-05-05 17:16 48.10607 -74.19523 32493 ft 478 kts 334°
2026-05-05 17:16 48.13831 -74.20838 32533 ft 482 kts 334°
2026-05-05 17:17 48.20339 -74.23515 32540 ft 493 kts 334°
2026-05-05 17:17 48.27041 -74.26260 32554 ft 505 kts 334°
2026-05-05 17:18 48.33887 -74.29083 32552 ft 515 kts 334°
2026-05-05 17:18 48.40828 -74.31941 32549 ft 518 kts 334°
2026-05-05 17:19 48.47776 -74.34822 32547 ft 518 kts 334°
2026-05-05 17:19 48.54744 -74.37714 32541 ft 519 kts 334°
2026-05-05 17:20 48.61713 -74.40616 32542 ft 520 kts 334°
2026-05-05 17:20 48.68697 -74.43534 32538 ft 520 kts 334°
2026-05-05 17:21 48.75675 -74.46457 32534 ft 520 kts 334°
2026-05-05 17:22 48.86140 -74.50858 32533 ft 521 kts 334°
2026-05-05 17:22 48.93135 -74.53809 32528 ft 522 kts 334°
2026-05-05 17:23 49.00091 -74.56753 32517 ft 523 kts 334°
2026-05-05 17:23 49.07119 -74.59735 32515 ft 524 kts 334°
2026-05-05 17:24 49.14145 -74.62726 32519 ft 524 kts 334°
2026-05-05 17:24 49.21173 -74.65726 32512 ft 525 kts 334°
2026-05-05 17:25 49.28218 -74.68743 32502 ft 526 kts 334°
2026-05-05 17:25 49.35271 -74.71772 32506 ft 527 kts 334°
2026-05-05 17:26 49.42335 -74.74814 32504 ft 528 kts 334°
2026-05-05 17:26 49.49416 -74.77874 32500 ft 529 kts 334°
2026-05-05 17:27 49.56445 -74.80918 32486 ft 529 kts 334°
2026-05-05 17:27 49.63533 -74.84000 32475 ft 529 kts 334°
2026-05-05 17:28 49.70613 -74.87086 32475 ft 529 kts 334°
2026-05-05 17:28 49.77711 -74.90190 32478 ft 529 kts 334°
2026-05-05 17:29 49.84793 -74.93296 32488 ft 528 kts 334°
2026-05-05 17:29 49.91873 -74.96412 32486 ft 528 kts 334°
2026-05-05 17:30 49.98945 -74.99532 32495 ft 528 kts 335°
2026-05-05 17:30 50.05862 -75.03131 32486 ft 523 kts 332°
2026-05-05 17:31 50.12709 -75.06777 32486 ft 523 kts 332°
2026-05-05 17:31 50.19601 -75.10474 32493 ft 522 kts 332°
2026-05-05 17:32 50.26482 -75.14175 32490 ft 523 kts 332°
2026-05-05 17:32 50.33354 -75.17878 32484 ft 523 kts 333°
2026-05-05 17:33 50.39894 -75.21418 32485 ft 522 kts 333°
2026-05-05 17:33 50.46749 -75.25134 32481 ft 521 kts 333°
2026-05-05 17:34 50.53592 -75.28859 32483 ft 520 kts 333°
2026-05-05 17:34 50.60414 -75.32582 32472 ft 519 kts 334°
2026-05-05 17:35 50.67240 -75.36320 32473 ft 518 kts 334°
2026-05-05 17:35 50.74004 -75.40035 32477 ft 518 kts 334°
2026-05-05 17:36 50.80810 -75.43784 32470 ft 518 kts 334°
2026-05-05 17:36 50.87629 -75.47552 32478 ft 518 kts 334°
2026-05-05 17:37 50.94423 -75.51318 32477 ft 517 kts 335°
2026-05-05 17:37 51.01218 -75.55097 32467 ft 517 kts 335°
2026-05-05 17:38 51.08009 -75.58883 32468 ft 517 kts 335°
2026-05-05 17:38 51.14799 -75.62683 32459 ft 516 kts 335°
2026-05-05 17:39 51.21575 -75.66486 32454 ft 516 kts 335°
2026-05-05 17:39 51.28309 -75.70277 32457 ft 516 kts 336°
2026-05-05 17:40 51.35067 -75.74094 32457 ft 515 kts 336°
2026-05-05 17:40 51.41825 -75.77923 32452 ft 514 kts 336°
2026-05-05 17:41 51.48574 -75.81758 32448 ft 514 kts 336°
2026-05-05 17:41 51.55313 -75.85600 32449 ft 514 kts 336°
2026-05-05 17:42 51.62040 -75.89447 32449 ft 513 kts 336°
2026-05-05 17:42 51.68764 -75.93305 32442 ft 513 kts 336°
2026-05-05 17:43 51.75495 -75.97179 32442 ft 513 kts 336°
2026-05-05 17:43 51.82211 -76.01056 32441 ft 513 kts 336°
2026-05-05 17:44 51.88929 -76.04947 32442 ft 513 kts 337°
2026-05-05 17:44 51.95657 -76.08857 32440 ft 513 kts 337°
2026-05-05 17:45 52.02376 -76.12773 32439 ft 513 kts 337°
2026-05-05 17:45 52.09095 -76.16702 32443 ft 512 kts 337°
2026-05-05 17:46 52.15801 -76.20636 32441 ft 512 kts 337°
2026-05-05 17:46 52.22504 -76.24581 32436 ft 512 kts 337°
2026-05-05 17:47 52.29198 -76.28533 32433 ft 512 kts 337°
2026-05-05 17:47 52.35912 -76.32510 32438 ft 512 kts 337°
2026-05-05 17:48 52.42612 -76.36491 32431 ft 512 kts 337°
2026-05-05 17:48 52.49270 -76.40461 32503 ft 513 kts 337°
2026-05-05 17:48 52.52613 -76.42458 32843 ft 512 kts 337°
2026-05-05 17:49 52.55971 -76.44467 33128 ft 512 kts 337°
2026-05-05 17:49 52.59314 -76.46473 33382 ft 512 kts 337°
2026-05-05 17:49 52.62665 -76.48486 33578 ft 513 kts 338°
2026-05-05 17:49 52.66019 -76.50503 33786 ft 513 kts 338°
2026-05-05 17:50 52.69371 -76.52522 33982 ft 513 kts 338°
2026-05-05 17:50 52.72727 -76.54547 34203 ft 513 kts 338°
2026-05-05 17:50 52.76082 -76.56576 34417 ft 513 kts 338°
2026-05-05 17:50 52.79431 -76.58603 34624 ft 513 kts 338°
2026-05-05 17:51 52.82346 -76.60371 34798 ft 514 kts 338°
2026-05-05 17:51 52.85653 -76.62379 34990 ft 514 kts 338°
2026-05-05 17:51 52.89024 -76.64430 35173 ft 514 kts 338°
2026-05-05 17:51 52.92383 -76.66476 35388 ft 515 kts 338°
2026-05-05 17:52 52.95741 -76.68526 35561 ft 515 kts 338°
2026-05-05 17:52 52.99091 -76.70574 35743 ft 515 kts 338°
2026-05-05 17:52 53.02474 -76.72646 35924 ft 515 kts 338°
2026-05-05 17:52 53.05835 -76.74707 36114 ft 516 kts 338°
2026-05-05 17:53 53.09207 -76.76779 36299 ft 516 kts 338°
2026-05-05 17:53 53.12577 -76.78853 36402 ft 518 kts 338°
2026-05-05 17:53 53.15961 -76.80940 36398 ft 519 kts 338°
2026-05-05 17:54 53.22711 -76.85111 36394 ft 515 kts 338°
2026-05-05 17:54 53.29429 -76.89278 36400 ft 514 kts 338°
2026-05-05 17:55 53.36092 -76.93424 36403 ft 514 kts 338°
2026-05-05 17:55 53.42790 -76.97605 36402 ft 514 kts 338°
2026-05-05 17:56 53.49497 -77.01806 36403 ft 514 kts 338°
2026-05-05 17:56 53.56198 -77.06018 36390 ft 514 kts 338°
2026-05-05 17:57 53.62849 -77.10213 36396 ft 514 kts 338°
2026-05-05 17:57 53.69549 -77.14453 36384 ft 514 kts 338°
2026-05-05 17:58 53.76233 -77.18696 36386 ft 514 kts 338°
2026-05-05 17:58 53.82935 -77.22967 36383 ft 514 kts 338°
2026-05-05 17:59 53.89622 -77.27241 36381 ft 514 kts 339°
2026-05-05 17:59 53.96311 -77.31533 36381 ft 514 kts 339°
2026-05-05 18:00 54.03001 -77.35839 36372 ft 513 kts 339°
2026-05-05 18:00 54.08553 -77.39424 36380 ft 513 kts 339°
2026-05-05 18:01 54.15233 -77.43751 36367 ft 513 kts 339°
2026-05-05 18:01 54.21890 -77.48078 36369 ft 513 kts 339°
2026-05-05 18:02 54.28376 -77.52309 36362 ft 513 kts 339°
2026-05-05 18:02 54.35040 -77.56671 36356 ft 512 kts 339°
2026-05-05 18:03 54.41705 -77.61048 36358 ft 513 kts 339°
2026-05-05 18:03 54.48368 -77.65440 36361 ft 513 kts 339°
2026-05-05 18:04 54.55032 -77.69847 36359 ft 513 kts 339°
2026-05-05 18:04 54.61653 -77.74241 36363 ft 512 kts 339°
2026-05-05 18:05 54.68311 -77.78675 36356 ft 513 kts 339°
2026-05-05 18:05 54.74964 -77.83122 36356 ft 512 kts 339°
2026-05-05 18:06 54.81410 -77.87446 36357 ft 513 kts 339°
2026-05-05 18:06 54.88113 -77.91957 36350 ft 513 kts 339°
2026-05-05 18:07 54.94766 -77.96451 36356 ft 513 kts 339°
2026-05-05 18:07 55.01240 -78.01599 36350 ft 512 kts 326°
2026-05-05 18:08 55.06865 -78.09169 36363 ft 511 kts 321°
2026-05-05 18:08 55.12509 -78.16731 36359 ft 511 kts 323°
2026-05-05 18:09 55.18158 -78.24281 36358 ft 512 kts 321°
2026-05-05 18:09 55.23787 -78.31931 36357 ft 512 kts 322°
2026-05-05 18:10 55.29438 -78.39535 36364 ft 512 kts 322°
2026-05-05 18:10 55.35060 -78.47215 36366 ft 512 kts 322°
2026-05-05 18:11 55.40653 -78.54818 36368 ft 512 kts 322°
2026-05-05 18:11 55.46280 -78.62542 36377 ft 512 kts 322°
2026-05-05 18:12 55.51906 -78.70264 36377 ft 513 kts 322°
2026-05-05 18:12 55.57528 -78.78025 36378 ft 513 kts 322°
2026-05-05 18:13 55.63162 -78.85824 36386 ft 514 kts 322°
2026-05-05 18:13 55.68790 -78.93649 36381 ft 514 kts 322°
2026-05-05 18:14 55.74409 -79.01488 36396 ft 514 kts 322°
2026-05-05 18:14 55.80023 -79.09350 36399 ft 514 kts 322°
2026-05-05 18:15 55.85637 -79.17242 36403 ft 514 kts 322°
2026-05-05 18:15 55.91200 -79.25092 36399 ft 514 kts 322°
2026-05-05 18:16 55.96806 -79.33033 36401 ft 514 kts 322°
2026-05-05 18:16 56.02399 -79.40985 36407 ft 514 kts 322°
2026-05-05 18:17 56.07991 -79.48966 36413 ft 514 kts 322°
2026-05-05 18:17 56.13581 -79.56976 36409 ft 515 kts 322°
2026-05-05 18:18 56.19175 -79.65021 36422 ft 515 kts 322°
2026-05-05 18:18 56.24758 -79.73083 36411 ft 515 kts 322°
2026-05-05 18:19 56.30334 -79.81164 36416 ft 515 kts 322°
2026-05-05 18:19 56.35908 -79.89274 36428 ft 515 kts 322°
2026-05-05 18:20 56.41474 -79.97405 36437 ft 515 kts 322°
2026-05-05 18:20 56.47031 -80.05554 36433 ft 515 kts 322°
2026-05-05 18:21 56.52561 -80.13693 36443 ft 515 kts 322°
2026-05-05 18:21 56.58118 -80.21906 36447 ft 515 kts 322°
2026-05-05 18:22 56.63671 -80.30144 36450 ft 516 kts 322°
2026-05-05 18:22 56.69222 -80.38412 36457 ft 515 kts 322°
2026-05-05 18:23 56.74768 -80.46705 36466 ft 515 kts 322°
2026-05-05 18:23 56.80304 -80.55014 36472 ft 515 kts 322°
2026-05-05 18:24 56.85836 -80.63353 36474 ft 516 kts 322°
2026-05-05 18:24 56.91365 -80.71719 36474 ft 516 kts 322°
2026-05-05 18:25 56.96854 -80.80056 36484 ft 516 kts 322°
2026-05-05 18:25 57.02369 -80.88470 36488 ft 516 kts 321°
2026-05-05 18:26 57.07880 -80.96908 36491 ft 516 kts 321°
2026-05-05 18:26 57.13399 -81.05394 36501 ft 516 kts 321°
2026-05-05 18:27 57.18898 -81.13881 36508 ft 516 kts 321°
2026-05-05 18:27 57.24398 -81.22406 36517 ft 516 kts 321°
2026-05-05 18:28 57.32633 -81.35235 36523 ft 516 kts 321°
2026-05-05 18:28 57.38115 -81.43816 36527 ft 516 kts 321°
2026-05-05 18:29 57.43591 -81.52425 36537 ft 516 kts 321°
2026-05-05 18:29 57.49017 -81.60988 36540 ft 516 kts 321°
2026-05-05 18:30 57.54480 -81.69645 36545 ft 516 kts 321°
2026-05-05 18:30 57.59938 -81.78331 36552 ft 516 kts 321°
2026-05-05 18:31 57.65387 -81.87038 36549 ft 516 kts 321°
2026-05-05 18:31 57.70829 -81.95768 36561 ft 516 kts 321°
2026-05-05 18:32 57.76266 -82.04526 36566 ft 515 kts 321°
2026-05-05 18:32 57.81692 -82.13304 36573 ft 515 kts 320°
2026-05-05 18:33 57.87114 -82.22111 36575 ft 515 kts 320°
2026-05-05 18:33 57.92518 -82.30925 36582 ft 515 kts 320°
2026-05-05 18:34 57.97935 -82.39797 36585 ft 515 kts 320°
2026-05-05 18:34 58.03332 -82.48673 36607 ft 515 kts 320°
2026-05-05 18:35 58.08721 -82.57573 36610 ft 515 kts 320°
2026-05-05 18:35 58.14115 -82.66518 36612 ft 515 kts 320°
2026-05-05 18:36 58.19459 -82.75417 36613 ft 514 kts 320°
2026-05-05 18:36 58.24834 -82.84407 36618 ft 514 kts 320°
2026-05-05 18:37 58.30194 -82.93409 36623 ft 514 kts 320°
2026-05-05 18:37 58.35545 -83.02433 36630 ft 514 kts 320°
2026-05-05 18:38 58.40892 -83.11488 36627 ft 514 kts 319°
2026-05-05 18:38 58.46238 -83.20581 36636 ft 514 kts 319°
2026-05-05 18:39 58.51571 -83.29690 36643 ft 514 kts 319°
2026-05-05 18:39 58.56891 -83.38815 36650 ft 514 kts 319°
2026-05-05 18:40 58.62206 -83.47971 36656 ft 513 kts 319°
2026-05-05 18:40 58.67515 -83.57155 36658 ft 513 kts 319°
2026-05-05 18:41 58.72630 -83.66041 36667 ft 513 kts 319°
2026-05-05 18:41 58.77958 -83.75337 36671 ft 513 kts 319°
2026-05-05 18:42 58.83208 -83.84536 36678 ft 514 kts 319°
2026-05-05 18:42 58.88492 -83.93834 36682 ft 514 kts 319°
2026-05-05 18:43 58.93775 -84.03171 36684 ft 514 kts 318°
2026-05-05 18:43 58.99044 -84.12523 36687 ft 514 kts 318°
2026-05-05 18:44 59.04315 -84.21920 36695 ft 514 kts 318°
2026-05-05 18:44 59.09575 -84.31338 36701 ft 514 kts 318°
2026-05-05 18:45 59.14825 -84.40780 36705 ft 514 kts 318°
2026-05-05 18:45 59.20079 -84.50269 36714 ft 514 kts 318°
2026-05-05 18:46 59.25317 -84.59773 36715 ft 514 kts 317°
2026-05-05 18:46 59.30546 -84.69301 36719 ft 514 kts 317°
2026-05-05 18:47 59.35768 -84.78858 36727 ft 514 kts 317°
2026-05-05 18:47 59.40981 -84.88441 36730 ft 514 kts 317°
2026-05-05 18:48 59.45313 -84.96437 36736 ft 514 kts 317°
2026-05-05 18:48 59.50522 -85.06091 36739 ft 514 kts 317°
2026-05-05 18:49 59.56560 -85.17335 36746 ft 513 kts 317°
2026-05-05 18:49 59.60871 -85.25399 36752 ft 514 kts 317°
2026-05-05 18:50 59.66051 -85.35128 36755 ft 514 kts 317°
2026-05-05 18:50 59.71229 -85.44898 36757 ft 514 kts 317°
2026-05-05 18:51 59.76399 -85.54696 36763 ft 514 kts 316°
2026-05-05 18:51 59.81568 -85.64537 36765 ft 514 kts 316°
2026-05-05 18:52 59.86725 -85.74399 36777 ft 514 kts 316°
2026-05-05 18:52 59.91780 -85.84109 36777 ft 514 kts 316°
2026-05-05 18:53 59.96918 -85.94024 36790 ft 514 kts 316°
2026-05-05 18:53 60.02113 -86.03824 36793 ft 513 kts 318°
2026-05-05 18:54 60.07334 -86.13581 36796 ft 514 kts 317°
2026-05-05 18:54 60.12589 -86.23308 36805 ft 514 kts 317°
2026-05-05 18:55 60.17825 -86.33093 36806 ft 514 kts 317°
2026-05-05 18:55 60.23058 -86.42914 36812 ft 514 kts 317°
2026-05-05 18:56 60.28286 -86.52754 36819 ft 514 kts 317°
2026-05-05 18:56 60.33502 -86.62640 36825 ft 514 kts 317°
2026-05-05 18:57 60.38709 -86.72532 36831 ft 514 kts 317°
2026-05-05 18:57 60.43905 -86.82465 36836 ft 514 kts 317°
2026-05-05 18:58 60.49015 -86.92269 36838 ft 514 kts 316°
2026-05-05 18:58 60.54168 -87.02208 36844 ft 514 kts 316°
2026-05-05 18:59 60.59382 -87.12304 36847 ft 514 kts 316°
2026-05-05 18:59 60.64509 -87.22284 36854 ft 514 kts 316°
2026-05-05 19:00 60.69700 -87.32433 36860 ft 513 kts 316°
2026-05-05 19:00 60.74808 -87.42467 36867 ft 513 kts 316°
2026-05-05 19:01 60.79941 -87.52597 36870 ft 512 kts 316°
2026-05-05 19:01 60.85064 -87.62755 36874 ft 512 kts 316°
2026-05-05 19:02 60.90177 -87.72941 36877 ft 512 kts 316°
2026-05-05 19:02 60.95275 -87.83145 36873 ft 512 kts 316°
2026-05-05 19:03 61.00368 -87.93388 36876 ft 511 kts 315°
2026-05-05 19:03 61.05446 -88.03648 36890 ft 511 kts 315°
2026-05-05 19:04 61.10512 -88.13934 36890 ft 510 kts 315°
2026-05-05 19:04 61.15570 -88.24252 36892 ft 510 kts 315°
2026-05-05 19:05 61.20608 -88.34578 36897 ft 509 kts 315°
2026-05-05 19:05 61.25640 -88.44941 36896 ft 509 kts 315°
2026-05-05 19:06 61.30658 -88.55324 36903 ft 509 kts 315°
2026-05-05 19:06 61.35663 -88.65731 36906 ft 508 kts 315°
2026-05-05 19:07 61.40625 -88.76098 36911 ft 508 kts 315°
2026-05-05 19:07 61.45611 -88.86563 36911 ft 508 kts 315°
2026-05-05 19:08 61.50590 -88.97066 36915 ft 508 kts 315°
2026-05-05 19:08 61.55556 -89.07590 36921 ft 508 kts 314°
2026-05-05 19:09 61.60515 -89.18153 36926 ft 507 kts 314°
2026-05-05 19:09 61.65463 -89.28742 36930 ft 507 kts 314°
2026-05-05 19:10 61.70399 -89.39356 36932 ft 507 kts 314°
2026-05-05 19:10 61.75298 -89.49944 36939 ft 507 kts 314°
2026-05-05 19:11 61.80214 -89.60619 36943 ft 508 kts 314°
2026-05-05 19:11 61.85127 -89.71341 36948 ft 508 kts 314°
2026-05-05 19:12 61.90041 -89.82116 36954 ft 508 kts 314°
2026-05-05 19:12 61.94948 -89.92929 36958 ft 508 kts 314°
2026-05-05 19:13 61.99844 -90.03772 36962 ft 509 kts 314°
2026-05-05 19:13 62.04708 -90.14598 36965 ft 509 kts 314°
2026-05-05 19:14 62.09599 -90.25537 36968 ft 508 kts 314°
2026-05-05 19:14 62.14468 -90.36483 36974 ft 508 kts 314°
2026-05-05 19:15 62.19326 -90.47458 36980 ft 508 kts 314°
2026-05-05 19:15 62.24173 -90.58463 36984 ft 507 kts 313°
2026-05-05 19:16 62.29008 -90.69495 36986 ft 507 kts 313°
2026-05-05 19:16 62.33834 -90.80564 36991 ft 506 kts 313°
2026-05-05 19:17 62.38612 -90.91577 36999 ft 506 kts 313°
2026-05-05 19:17 62.43408 -91.02687 37006 ft 505 kts 313°
2026-05-05 19:18 62.48191 -91.13823 37017 ft 505 kts 313°
2026-05-05 19:18 62.52958 -91.24979 37017 ft 504 kts 313°
2026-05-05 19:19 62.57714 -91.36165 37025 ft 504 kts 313°
2026-05-05 19:19 62.62456 -91.47375 37036 ft 504 kts 313°
2026-05-05 19:20 62.67194 -91.58633 37043 ft 504 kts 313°
2026-05-05 19:20 62.71888 -91.69841 37053 ft 504 kts 313°
2026-05-05 19:21 62.76601 -91.81158 37057 ft 503 kts 313°
2026-05-05 19:21 62.81299 -91.92492 37057 ft 503 kts 312°
2026-05-05 19:22 62.85989 -92.03864 37058 ft 503 kts 312°
2026-05-05 19:22 62.90663 -92.15259 37058 ft 502 kts 312°
2026-05-05 19:23 62.95330 -92.26695 37057 ft 502 kts 312°
2026-05-05 19:23 62.99954 -92.38084 37063 ft 502 kts 312°
2026-05-05 19:24 63.04593 -92.49567 37074 ft 501 kts 312°
2026-05-05 19:24 63.09219 -92.61082 37077 ft 501 kts 312°
2026-05-05 19:25 63.13841 -92.72642 37078 ft 501 kts 311°
2026-05-05 19:25 63.18442 -92.84214 37074 ft 500 kts 311°
2026-05-05 19:26 63.23030 -92.95811 37076 ft 500 kts 311°
2026-05-05 19:26 63.27609 -93.07449 37076 ft 500 kts 311°
2026-05-05 19:27 63.32176 -93.19112 37080 ft 499 kts 311°
2026-05-05 19:27 63.36695 -93.30719 37083 ft 499 kts 311°
2026-05-05 19:28 63.41235 -93.42438 37089 ft 499 kts 311°
2026-05-05 19:28 63.45764 -93.54190 37093 ft 499 kts 311°
2026-05-05 19:29 63.50278 -93.65968 37096 ft 498 kts 311°
2026-05-05 19:29 63.54783 -93.77784 37102 ft 498 kts 311°
2026-05-05 19:30 63.59275 -93.89628 37109 ft 498 kts 311°
2026-05-05 19:30 63.63754 -94.01503 37114 ft 498 kts 311°
2026-05-05 19:31 63.68202 -94.13355 37117 ft 498 kts 310°
2026-05-05 19:31 63.72689 -94.25377 37122 ft 497 kts 310°
2026-05-05 19:32 63.77101 -94.37264 37129 ft 496 kts 310°
2026-05-05 19:32 63.81529 -94.49258 37131 ft 496 kts 310°
2026-05-05 19:33 63.85944 -94.61279 37135 ft 496 kts 310°
2026-05-05 19:33 63.90347 -94.73330 37135 ft 495 kts 310°
2026-05-05 19:34 63.94728 -94.85392 37141 ft 495 kts 310°
2026-05-05 19:35 64.01289 -95.03563 37148 ft 495 kts 310°
2026-05-05 19:35 64.05710 -95.15568 37147 ft 494 kts 310°
2026-05-05 19:36 64.10066 -95.27577 37152 ft 494 kts 310°
2026-05-05 19:36 64.14450 -95.39689 37155 ft 494 kts 310°
2026-05-05 19:37 64.18819 -95.51827 37162 ft 493 kts 310°
2026-05-05 19:37 64.23172 -95.64001 37171 ft 493 kts 310°
2026-05-05 19:38 64.27517 -95.76202 37174 ft 493 kts 310°
2026-05-05 19:38 64.31118 -95.86381 37178 ft 493 kts 310°
2026-05-05 19:39 64.35442 -95.98646 37185 ft 492 kts 310°
2026-05-05 19:39 64.39753 -96.10956 37193 ft 492 kts 309°
2026-05-05 19:40 64.44051 -96.23289 37198 ft 492 kts 309°
2026-05-05 19:40 64.48338 -96.35662 37208 ft 492 kts 309°
2026-05-05 19:41 64.52605 -96.48046 37207 ft 492 kts 309°
2026-05-05 19:41 64.56872 -96.60496 37213 ft 491 kts 309°
2026-05-05 19:42 64.61120 -96.72965 37219 ft 491 kts 309°
2026-05-05 19:42 64.65325 -96.85372 37224 ft 491 kts 309°
2026-05-05 19:43 64.69559 -96.97939 37233 ft 491 kts 309°
2026-05-05 19:43 64.73770 -97.10504 37234 ft 491 kts 309°
2026-05-05 19:44 64.77969 -97.23109 37241 ft 490 kts 309°
2026-05-05 19:44 64.82154 -97.35741 37247 ft 490 kts 309°
2026-05-05 19:45 64.86329 -97.48415 37248 ft 490 kts 309°
2026-05-05 19:45 64.90494 -97.61131 37252 ft 490 kts 308°
2026-05-05 19:46 64.94636 -97.73849 37265 ft 489 kts 308°
2026-05-05 19:46 64.98745 -97.86534 37267 ft 489 kts 308°
2026-05-05 19:47 65.02858 -97.99312 37269 ft 488 kts 308°
2026-05-05 19:47 65.06963 -98.12131 37269 ft 488 kts 308°
2026-05-05 19:48 65.11052 -98.24978 37285 ft 487 kts 308°
2026-05-05 19:48 65.15124 -98.37844 37284 ft 487 kts 308°
2026-05-05 19:49 65.19185 -98.50748 37298 ft 487 kts 308°
2026-05-05 19:49 65.23236 -98.63698 37305 ft 487 kts 308°
2026-05-05 19:50 65.27271 -98.76672 37308 ft 487 kts 308°
2026-05-05 19:50 65.31293 -98.89681 37315 ft 486 kts 308°
2026-05-05 19:51 65.35304 -99.02728 37317 ft 486 kts 307°
2026-05-05 19:51 65.39294 -99.15784 37319 ft 486 kts 307°
2026-05-05 19:52 65.43282 -99.28908 37319 ft 486 kts 307°
2026-05-05 19:52 65.47256 -99.42069 37325 ft 486 kts 307°
2026-05-05 19:53 65.51221 -99.55272 37343 ft 487 kts 307°
2026-05-05 19:53 65.55177 -99.68527 37342 ft 487 kts 307°
2026-05-05 19:54 65.59100 -99.81751 37347 ft 487 kts 307°
2026-05-05 19:54 65.63036 -99.95094 37346 ft 487 kts 306°
2026-05-05 19:55 65.66983 -100.08559 37352 ft 487 kts 306°
2026-05-05 19:55 65.70863 -100.21873 37348 ft 486 kts 306°
2026-05-05 19:56 65.74761 -100.35332 37354 ft 486 kts 306°
2026-05-05 19:56 65.78640 -100.48805 37352 ft 486 kts 306°
2026-05-05 19:57 65.82510 -100.62329 37356 ft 486 kts 306°
2026-05-05 19:57 65.86365 -100.75883 37356 ft 486 kts 306°
2026-05-05 19:58 65.90209 -100.89479 37361 ft 485 kts 306°
2026-05-05 19:58 65.94031 -101.03086 37359 ft 485 kts 306°
2026-05-05 19:59 65.97839 -101.16722 37362 ft 484 kts 305°
2026-05-05 19:59 66.01609 -101.30307 37364 ft 485 kts 305°
2026-05-05 20:00 66.05393 -101.44026 37367 ft 485 kts 305°
2026-05-05 20:00 66.09162 -101.57775 37364 ft 484 kts 305°
2026-05-05 20:01 66.12917 -101.71559 37364 ft 484 kts 305°
2026-05-05 20:01 66.16661 -101.85388 37369 ft 485 kts 305°
2026-05-05 20:02 66.20396 -101.99272 37371 ft 484 kts 304°
2026-05-05 20:02 66.24114 -102.13182 37375 ft 484 kts 304°
2026-05-05 20:03 66.27818 -102.27121 37375 ft 484 kts 304°
2026-05-05 20:03 66.31507 -102.41097 37378 ft 483 kts 304°
2026-05-05 20:04 66.35184 -102.55117 37375 ft 483 kts 304°
2026-05-05 20:04 66.38843 -102.69152 37374 ft 482 kts 304°
2026-05-05 20:05 66.42484 -102.83210 37370 ft 482 kts 304°
2026-05-05 20:05 66.46087 -102.97211 37367 ft 482 kts 304°
2026-05-05 20:06 66.49704 -103.11355 37366 ft 482 kts 304°
2026-05-05 20:06 66.53306 -103.25534 37363 ft 482 kts 303°
2026-05-05 20:07 66.56895 -103.39750 37362 ft 482 kts 303°
2026-05-05 20:07 66.60465 -103.53988 37357 ft 481 kts 303°
2026-05-05 20:08 66.64017 -103.68242 37350 ft 480 kts 303°
2026-05-05 20:08 66.67550 -103.82512 37350 ft 480 kts 303°
2026-05-05 20:09 66.71074 -103.96840 37347 ft 480 kts 303°
2026-05-05 20:09 66.74579 -104.11188 37340 ft 479 kts 303°
2026-05-05 20:10 66.78042 -104.25455 37340 ft 479 kts 303°
2026-05-05 20:10 66.81520 -104.39874 37340 ft 479 kts 303°
2026-05-05 20:11 66.84982 -104.54326 37333 ft 478 kts 302°
2026-05-05 20:11 66.88425 -104.68797 37338 ft 478 kts 302°
2026-05-05 20:12 66.91850 -104.83283 37333 ft 477 kts 302°
2026-05-05 20:12 66.95263 -104.97818 37326 ft 477 kts 302°
2026-05-05 20:13 66.98657 -105.12371 37318 ft 477 kts 302°
2026-05-05 20:13 67.02041 -105.26976 37320 ft 477 kts 302°
2026-05-05 20:14 67.05417 -105.41643 37316 ft 478 kts 302°
2026-05-05 20:14 67.08778 -105.56350 37312 ft 477 kts 302°
2026-05-05 20:15 67.12099 -105.70976 37304 ft 477 kts 302°
2026-05-05 20:15 67.15431 -105.85754 37298 ft 476 kts 302°
2026-05-05 20:16 67.18741 -106.00537 37293 ft 476 kts 301°
2026-05-05 20:16 67.22042 -106.15376 37293 ft 476 kts 301°
2026-05-05 20:17 67.25329 -106.30257 37289 ft 476 kts 301°
2026-05-05 20:17 67.28576 -106.45063 37281 ft 476 kts 301°
2026-05-05 20:18 67.31824 -106.59971 37275 ft 475 kts 301°
2026-05-05 20:18 67.35052 -106.74892 37273 ft 474 kts 301°
2026-05-05 20:19 67.38265 -106.89853 37267 ft 474 kts 301°
2026-05-05 20:19 67.41459 -107.04823 37266 ft 474 kts 301°
2026-05-05 20:20 67.44644 -107.19861 37261 ft 474 kts 301°
2026-05-05 20:20 67.47809 -107.34910 37265 ft 473 kts 301°
2026-05-05 20:21 67.50956 -107.49978 37254 ft 472 kts 301°
2026-05-05 20:21 67.54084 -107.65065 37258 ft 472 kts 300°
2026-05-05 20:22 67.57181 -107.80106 37261 ft 471 kts 300°
2026-05-05 20:22 67.60274 -107.95239 37260 ft 471 kts 300°
2026-05-05 20:23 67.63353 -108.10407 37255 ft 471 kts 300°
2026-05-05 20:23 67.66409 -108.25577 37245 ft 469 kts 300°
2026-05-05 20:24 67.69451 -108.40779 37246 ft 470 kts 300°
2026-05-05 20:24 67.71968 -108.53450 37241 ft 469 kts 300°
2026-05-05 20:25 67.74979 -108.68702 37232 ft 469 kts 300°
2026-05-05 20:25 67.78480 -108.86579 37227 ft 468 kts 300°
2026-05-05 20:26 67.80957 -108.99321 37225 ft 468 kts 300°
2026-05-05 20:26 67.83916 -109.14643 37225 ft 467 kts 299°
2026-05-05 20:27 67.86855 -109.29980 37223 ft 466 kts 299°
2026-05-05 20:27 67.89759 -109.45241 37223 ft 466 kts 299°
2026-05-05 20:28 67.92661 -109.60606 37222 ft 465 kts 299°
2026-05-05 20:28 67.95548 -109.76008 37214 ft 465 kts 299°
2026-05-05 20:29 67.98416 -109.91423 37212 ft 464 kts 299°
2026-05-05 20:29 68.00970 -110.07239 37237 ft 466 kts 292°
2026-05-05 20:30 68.03171 -110.23534 37216 ft 467 kts 293°
2026-05-05 20:30 68.05347 -110.39890 37214 ft 467 kts 292°
2026-05-05 20:31 68.07502 -110.56283 37213 ft 467 kts 292°
2026-05-05 20:31 68.09648 -110.72670 37211 ft 466 kts 292°
2026-05-05 20:32 68.11754 -110.88993 37205 ft 465 kts 292°
2026-05-05 20:32 68.13855 -111.05369 37199 ft 464 kts 292°
2026-05-05 20:33 68.15939 -111.21807 37201 ft 464 kts 292°
2026-05-05 20:33 68.18008 -111.38262 37200 ft 464 kts 291°
2026-05-05 20:34 68.20054 -111.54711 37197 ft 463 kts 291°
2026-05-05 20:34 68.22082 -111.71161 37195 ft 463 kts 291°
2026-05-05 20:35 68.24091 -111.87626 37204 ft 462 kts 291°
2026-05-05 20:35 68.26079 -112.04076 37198 ft 461 kts 291°
2026-05-05 20:36 68.28036 -112.20441 37192 ft 461 kts 291°
2026-05-05 20:36 68.29986 -112.36903 37194 ft 459 kts 291°
2026-05-05 20:37 68.31912 -112.53323 37193 ft 457 kts 290°
2026-05-05 20:37 68.33815 -112.69717 37191 ft 456 kts 290°
2026-05-05 20:38 68.35700 -112.86119 37187 ft 456 kts 290°
2026-05-05 20:38 68.37572 -113.02575 37189 ft 456 kts 290°
2026-05-05 20:39 68.39423 -113.19022 37187 ft 456 kts 290°
2026-05-05 20:39 68.41247 -113.35395 37184 ft 455 kts 290°
2026-05-05 20:40 68.43061 -113.51850 37182 ft 454 kts 289°
2026-05-05 20:40 68.44856 -113.68307 37185 ft 454 kts 289°
2026-05-05 20:41 68.46633 -113.84765 37178 ft 453 kts 289°
2026-05-05 20:41 68.48393 -114.01246 37191 ft 452 kts 289°
2026-05-05 20:42 68.50132 -114.17709 37185 ft 451 kts 289°
2026-05-05 20:42 68.51852 -114.34168 37174 ft 451 kts 289°
2026-05-05 20:43 68.53557 -114.50662 37169 ft 451 kts 288°
2026-05-05 20:43 68.55234 -114.67056 37167 ft 450 kts 288°
2026-05-05 20:44 68.56899 -114.83533 37166 ft 450 kts 288°
2026-05-05 20:44 68.58550 -115.00045 37167 ft 450 kts 288°
2026-05-05 20:45 68.60999 -115.24882 37166 ft 450 kts 288°
2026-05-05 20:45 68.62612 -115.41485 37156 ft 450 kts 287°
2026-05-05 20:46 68.64206 -115.58079 37155 ft 450 kts 287°
2026-05-05 20:46 68.65784 -115.74701 37150 ft 450 kts 287°
2026-05-05 20:47 68.67344 -115.91337 37148 ft 450 kts 287°
2026-05-05 20:47 68.68878 -116.07886 37144 ft 450 kts 287°
2026-05-05 20:48 68.70406 -116.24561 37141 ft 450 kts 286°
2026-05-05 20:48 68.71920 -116.41301 37135 ft 451 kts 286°
2026-05-05 20:49 68.73420 -116.58079 37131 ft 451 kts 286°
2026-05-05 20:49 68.74903 -116.74880 37132 ft 451 kts 285°
2026-05-05 20:50 68.76369 -116.91703 37125 ft 451 kts 285°
2026-05-05 20:50 68.77817 -117.08529 37117 ft 451 kts 285°
2026-05-05 20:51 68.79239 -117.25272 37108 ft 451 kts 285°
2026-05-05 20:51 68.80657 -117.42175 37106 ft 451 kts 285°
2026-05-05 20:52 68.82056 -117.59087 37106 ft 451 kts 284°
2026-05-05 20:52 68.83441 -117.76039 37107 ft 452 kts 284°
2026-05-05 20:53 68.84807 -117.92995 37101 ft 451 kts 284°
2026-05-05 20:53 68.86156 -118.09976 37093 ft 451 kts 284°
2026-05-05 20:54 68.87488 -118.26975 37088 ft 452 kts 284°
2026-05-05 20:54 68.88805 -118.44012 37084 ft 452 kts 283°
2026-05-05 20:55 68.90106 -118.61084 37081 ft 452 kts 283°
2026-05-05 20:55 68.91387 -118.78146 37075 ft 452 kts 283°
2026-05-05 20:56 68.92651 -118.95226 37077 ft 451 kts 283°
2026-05-05 20:56 68.93898 -119.12323 37056 ft 451 kts 283°
2026-05-05 20:57 68.95116 -119.29271 37059 ft 449 kts 282°
2026-05-05 20:57 68.96323 -119.46324 37068 ft 449 kts 282°
2026-05-05 20:58 68.97514 -119.63409 37043 ft 450 kts 282°
2026-05-05 20:58 68.98688 -119.80514 37047 ft 450 kts 282°
2026-05-05 20:59 68.99845 -119.97642 37056 ft 450 kts 282°
2026-05-05 20:59 69.01027 -120.14784 37055 ft 451 kts 282°
2026-05-05 21:00 69.02225 -120.31947 37055 ft 450 kts 281°
2026-05-05 21:00 69.03378 -120.49127 37053 ft 450 kts 281°
2026-05-05 21:01 69.04531 -120.66290 37055 ft 449 kts 281°
2026-05-05 21:01 69.05655 -120.83481 37060 ft 449 kts 281°
2026-05-05 21:02 69.06766 -121.00645 37060 ft 448 kts 281°
2026-05-05 21:02 69.07856 -121.17818 37062 ft 448 kts 280°
2026-05-05 21:03 69.08923 -121.34891 37065 ft 448 kts 280°
2026-05-05 21:03 69.09982 -121.52135 37065 ft 449 kts 280°
2026-05-05 21:04 69.11023 -121.69384 37068 ft 449 kts 279°
2026-05-05 21:04 69.12046 -121.86651 37068 ft 449 kts 279°
2026-05-05 21:05 69.13054 -122.03954 37066 ft 450 kts 279°
2026-05-05 21:05 69.14043 -122.21257 37057 ft 449 kts 279°
2026-05-05 21:06 69.15013 -122.38545 37042 ft 448 kts 279°
2026-05-05 21:06 69.15966 -122.55843 37033 ft 448 kts 278°
2026-05-05 21:07 69.16901 -122.73163 37025 ft 448 kts 278°
2026-05-05 21:07 69.17815 -122.90412 37007 ft 449 kts 278°
2026-05-05 21:08 69.18717 -123.07798 36995 ft 449 kts 278°
2026-05-05 21:08 69.19603 -123.25214 36983 ft 450 kts 278°
2026-05-05 21:09 69.20471 -123.42635 36967 ft 450 kts 277°
2026-05-05 21:09 69.21323 -123.60098 36951 ft 450 kts 277°
2026-05-05 21:10 69.22158 -123.77590 36945 ft 450 kts 277°
2026-05-05 21:10 69.22975 -123.95098 36934 ft 451 kts 277°
2026-05-05 21:11 69.23770 -124.12537 36929 ft 452 kts 276°
2026-05-05 21:11 69.24554 -124.30127 36925 ft 453 kts 276°
2026-05-05 21:12 69.25323 -124.47795 36918 ft 453 kts 276°
2026-05-05 21:12 69.25948 -124.62471 36920 ft 454 kts 276°
2026-05-05 21:13 69.26683 -124.80140 36921 ft 453 kts 276°
2026-05-05 21:13 69.27400 -124.97828 36913 ft 453 kts 275°
2026-05-05 21:14 69.28099 -125.15513 36916 ft 454 kts 275°
2026-05-05 21:14 69.28781 -125.33254 36907 ft 454 kts 275°
2026-05-05 21:15 69.29445 -125.51003 36901 ft 454 kts 275°
2026-05-05 21:15 69.30091 -125.68771 36902 ft 455 kts 275°
2026-05-05 21:16 69.30719 -125.86566 36909 ft 456 kts 274°
2026-05-05 21:16 69.31331 -126.04427 36907 ft 456 kts 274°
2026-05-05 21:17 69.31924 -126.22283 36916 ft 456 kts 274°
2026-05-05 21:17 69.32500 -126.40160 36909 ft 456 kts 274°
2026-05-05 21:18 69.33056 -126.58053 36890 ft 456 kts 274°
2026-05-05 21:18 69.33595 -126.75946 36894 ft 456 kts 273°
2026-05-05 21:19 69.34114 -126.93829 36888 ft 455 kts 273°
2026-05-05 21:19 69.34614 -127.11720 36871 ft 456 kts 273°
2026-05-05 21:20 69.35093 -127.29496 36869 ft 457 kts 273°
2026-05-05 21:20 69.35559 -127.47499 36857 ft 458 kts 272°
2026-05-05 21:21 69.36007 -127.65526 36838 ft 458 kts 272°
2026-05-05 21:21 69.36436 -127.83524 36835 ft 458 kts 272°
2026-05-05 21:22 69.36846 -128.01556 36834 ft 458 kts 272°
2026-05-05 21:22 69.37238 -128.19591 36824 ft 458 kts 271°
2026-05-05 21:23 69.37611 -128.37653 36825 ft 458 kts 271°
2026-05-05 21:23 69.37965 -128.55672 36823 ft 458 kts 271°
2026-05-05 21:24 69.38300 -128.73728 36817 ft 458 kts 271°
2026-05-05 21:24 69.38617 -128.91796 36811 ft 458 kts 271°
2026-05-05 21:25 69.38915 -129.09867 36804 ft 458 kts 270°
2026-05-05 21:25 69.39195 -129.27956 36800 ft 458 kts 270°
2026-05-05 21:26 69.39455 -129.46029 36791 ft 458 kts 270°
2026-05-05 21:26 69.39695 -129.63971 36790 ft 458 kts 270°
2026-05-05 21:27 69.39917 -129.82027 36784 ft 457 kts 269°
2026-05-05 21:27 69.40121 -130.00084 36781 ft 457 kts 269°
2026-05-05 21:28 69.40306 -130.18144 36781 ft 458 kts 269°
2026-05-05 21:28 69.40473 -130.36238 36777 ft 458 kts 269°
2026-05-05 21:29 69.40621 -130.54339 36776 ft 459 kts 269°
2026-05-05 21:29 69.40750 -130.72448 36780 ft 459 kts 268°
2026-05-05 21:30 69.40860 -130.90585 36775 ft 459 kts 268°
2026-05-05 21:30 69.40951 -131.08624 36769 ft 459 kts 268°
2026-05-05 21:31 69.41023 -131.26763 36765 ft 459 kts 268°
2026-05-05 21:31 69.41077 -131.44922 36758 ft 460 kts 268°
2026-05-05 21:32 69.41112 -131.63110 36764 ft 460 kts 267°
2026-05-05 21:32 69.41128 -131.81307 36761 ft 461 kts 267°
2026-05-05 21:33 69.41125 -131.99595 36773 ft 462 kts 267°
2026-05-05 21:33 69.41102 -132.17899 36754 ft 463 kts 266°
2026-05-05 21:34 69.41061 -132.36071 36747 ft 463 kts 266°
2026-05-05 21:34 69.41000 -132.54371 36747 ft 463 kts 266°
2026-05-05 21:35 69.40920 -132.72668 36753 ft 463 kts 266°
2026-05-05 21:35 69.40820 -132.90985 36751 ft 464 kts 266°
2026-05-05 21:36 69.40702 -133.09311 36748 ft 464 kts 266°
2026-05-05 21:36 69.40564 -133.27641 36749 ft 464 kts 265°
2026-05-05 21:37 69.40406 -133.45990 36752 ft 465 kts 265°
2026-05-05 21:37 69.40229 -133.64351 36758 ft 465 kts 265°
2026-05-05 21:38 69.40033 -133.82596 36759 ft 466 kts 265°
2026-05-05 21:38 69.39817 -134.00987 36761 ft 466 kts 265°
2026-05-05 21:39 69.39582 -134.19375 36761 ft 466 kts 264°
2026-05-05 21:39 69.39327 -134.37762 36756 ft 466 kts 264°
2026-05-05 21:40 69.39052 -134.56160 36749 ft 466 kts 264°
2026-05-05 21:40 69.38757 -134.74595 36739 ft 467 kts 264°
2026-05-05 21:41 69.38445 -134.92860 36733 ft 466 kts 264°
2026-05-05 21:41 69.38113 -135.11218 36728 ft 466 kts 263°
2026-05-05 21:42 69.37760 -135.29586 36717 ft 467 kts 263°
2026-05-05 21:42 69.37388 -135.47964 36713 ft 467 kts 263°
2026-05-05 21:43 69.36997 -135.66335 36708 ft 467 kts 263°
2026-05-05 21:43 69.36586 -135.84707 36703 ft 467 kts 263°
2026-05-05 21:44 69.36156 -136.03053 36698 ft 466 kts 262°
2026-05-05 21:44 69.35706 -136.21404 36700 ft 467 kts 262°
2026-05-05 21:45 69.35239 -136.39643 36694 ft 467 kts 262°
2026-05-05 21:45 69.34750 -136.57995 36693 ft 467 kts 262°
2026-05-05 21:46 69.34243 -136.76320 36696 ft 467 kts 262°
2026-05-05 21:46 69.33714 -136.94690 36688 ft 468 kts 262°
2026-05-05 21:47 69.33167 -137.13038 36687 ft 468 kts 261°
2026-05-05 21:47 69.32599 -137.31391 36689 ft 468 kts 261°
2026-05-05 21:48 69.32012 -137.49733 36683 ft 468 kts 261°
2026-05-05 21:48 69.31406 -137.68066 36685 ft 468 kts 261°
2026-05-05 21:49 69.30780 -137.86414 36692 ft 468 kts 261°
2026-05-05 21:49 69.30134 -138.04743 36692 ft 468 kts 260°
2026-05-05 21:50 69.29470 -138.23040 36693 ft 468 kts 260°
2026-05-05 21:50 69.28784 -138.41347 36699 ft 469 kts 260°
2026-05-05 21:51 69.28079 -138.59692 36699 ft 470 kts 260°
2026-05-05 21:51 69.27358 -138.77910 36697 ft 470 kts 259°
2026-05-05 21:52 69.26232 -139.05444 36697 ft 471 kts 259°
2026-05-05 21:53 69.25456 -139.23811 36693 ft 472 kts 259°
2026-05-05 21:53 69.24657 -139.42226 36692 ft 473 kts 259°
2026-05-05 21:54 69.23839 -139.60647 36678 ft 474 kts 259°
2026-05-05 21:54 69.23003 -139.78978 36673 ft 475 kts 259°
2026-05-05 21:55 69.22143 -139.97424 36672 ft 475 kts 258°
2026-05-05 21:55 69.21261 -140.15884 36669 ft 475 kts 258°
2026-05-05 21:56 69.20359 -140.34331 36663 ft 476 kts 258°
2026-05-05 21:56 69.19435 -140.52837 36662 ft 477 kts 258°
2026-05-05 21:57 69.18490 -140.71328 36654 ft 478 kts 258°
2026-05-05 21:57 69.17523 -140.89844 36650 ft 479 kts 258°
2026-05-05 21:58 69.16209 -141.07971 36663 ft 474 kts 250°
2026-05-05 21:58 69.14443 -141.25857 36636 ft 477 kts 251°
2026-05-05 21:59 69.12657 -141.43762 36646 ft 477 kts 250°
2026-05-05 21:59 69.10839 -141.61638 36640 ft 477 kts 251°
2026-05-05 22:00 69.09014 -141.79515 36636 ft 477 kts 250°
2026-05-05 22:00 69.07473 -141.94333 36637 ft 477 kts 250°
2026-05-05 22:01 69.05614 -142.12133 36636 ft 477 kts 250°
2026-05-05 22:01 69.03407 -142.32920 36633 ft 478 kts 250°
2026-05-05 22:02 69.01823 -142.47702 36630 ft 478 kts 250°
2026-05-05 22:02 68.99897 -142.65466 36632 ft 478 kts 250°
2026-05-05 22:03 68.97627 -142.86162 36615 ft 480 kts 250°
2026-05-05 22:03 68.95979 -143.01024 36618 ft 479 kts 250°
2026-05-05 22:04 68.93996 -143.18708 36616 ft 479 kts 249°
2026-05-05 22:04 68.91994 -143.36378 36617 ft 479 kts 249°
2026-05-05 22:05 68.89978 -143.53979 36617 ft 478 kts 249°
2026-05-05 22:05 68.87945 -143.71540 36596 ft 477 kts 249°
2026-05-05 22:06 68.85911 -143.88916 36594 ft 477 kts 249°
2026-05-05 22:06 68.83844 -144.06393 36603 ft 478 kts 249°
2026-05-05 22:07 68.81754 -144.23876 36604 ft 478 kts 249°
2026-05-05 22:07 68.79651 -144.41292 36607 ft 478 kts 249°
2026-05-05 22:08 68.77529 -144.58678 36612 ft 478 kts 249°
2026-05-05 22:08 68.75391 -144.76026 36618 ft 478 kts 249°
2026-05-05 22:09 68.73232 -144.93352 36623 ft 478 kts 248°
2026-05-05 22:09 68.71059 -145.10626 36625 ft 477 kts 248°
2026-05-05 22:10 68.68869 -145.27860 36634 ft 477 kts 248°
2026-05-05 22:10 68.66666 -145.45026 36638 ft 477 kts 248°
2026-05-05 22:11 68.64443 -145.62175 36644 ft 476 kts 248°
2026-05-05 22:11 68.62206 -145.79267 36645 ft 476 kts 248°
2026-05-05 22:12 68.59969 -145.96192 36649 ft 476 kts 248°
2026-05-05 22:12 68.57697 -146.13221 36657 ft 476 kts 247°
2026-05-05 22:13 68.55410 -146.30198 36664 ft 476 kts 247°
2026-05-05 22:13 68.53106 -146.47144 36666 ft 475 kts 247°
2026-05-05 22:14 68.50784 -146.64056 36681 ft 476 kts 247°
2026-05-05 22:14 68.48440 -146.80971 36686 ft 476 kts 247°
2026-05-05 22:15 68.46103 -146.97682 36701 ft 475 kts 247°
2026-05-05 22:15 68.43733 -147.14470 36706 ft 475 kts 246°
2026-05-05 22:16 68.41335 -147.31302 36718 ft 475 kts 246°
2026-05-05 22:16 68.38951 -147.47886 36729 ft 475 kts 246°
2026-05-05 22:17 68.36535 -147.64545 36734 ft 474 kts 246°
2026-05-05 22:17 68.34103 -147.81156 36721 ft 474 kts 246°
2026-05-05 22:18 68.31660 -147.97705 36721 ft 473 kts 246°
2026-05-05 22:18 68.29203 -148.14193 36716 ft 473 kts 246°
2026-05-05 22:19 68.26730 -148.30651 36720 ft 473 kts 246°
2026-05-05 22:19 68.24241 -148.47069 36729 ft 473 kts 245°
2026-05-05 22:20 68.21738 -148.63438 36730 ft 472 kts 245°
2026-05-05 22:20 68.19221 -148.79752 36733 ft 472 kts 245°
2026-05-05 22:21 68.16691 -148.96018 36741 ft 472 kts 245°
2026-05-05 22:21 68.14145 -149.12245 36741 ft 471 kts 245°
2026-05-05 22:22 68.11602 -149.28323 36736 ft 472 kts 245°
2026-05-05 22:22 68.09022 -149.44496 36737 ft 471 kts 245°
2026-05-05 22:23 68.06437 -149.60563 36744 ft 470 kts 244°
2026-05-05 22:23 68.03833 -149.76615 36740 ft 470 kts 244°
2026-05-05 22:24 68.01218 -149.92605 36743 ft 470 kts 244°
2026-05-05 22:24 67.98670 -150.08657 36743 ft 469 kts 245°
2026-05-05 22:25 67.96116 -150.24644 36747 ft 469 kts 245°
2026-05-05 22:25 67.93589 -150.40663 36745 ft 469 kts 245°
2026-05-05 22:26 67.91014 -150.56695 36755 ft 477 kts 245°
2026-05-05 22:26 67.88371 -150.73069 36765 ft 487 kts 245°
2026-05-05 22:27 67.85681 -150.89596 36761 ft 487 kts 244°
2026-05-05 22:27 67.83000 -151.05905 36771 ft 486 kts 244°
2026-05-05 22:28 67.80284 -151.22311 36779 ft 487 kts 244°
2026-05-05 22:28 67.77529 -151.38798 36777 ft 487 kts 244°
2026-05-05 22:29 67.74802 -151.54995 36777 ft 486 kts 244°
2026-05-05 22:29 67.72042 -151.71246 36772 ft 485 kts 244°
2026-05-05 22:30 67.69262 -151.87483 36776 ft 486 kts 244°
2026-05-05 22:30 67.66472 -152.03645 36775 ft 486 kts 244°
2026-05-05 22:31 67.63657 -152.19824 36766 ft 486 kts 244°
2026-05-05 22:31 67.60829 -152.35945 36760 ft 487 kts 243°
2026-05-05 22:32 67.57987 -152.52017 36758 ft 486 kts 243°
2026-05-05 22:32 67.55142 -152.67979 36753 ft 486 kts 243°
2026-05-05 22:33 67.52264 -152.83996 36741 ft 487 kts 243°
2026-05-05 22:33 67.49371 -152.99972 36738 ft 487 kts 243°
2026-05-05 22:34 67.46447 -153.15996 36724 ft 486 kts 243°
2026-05-05 22:34 67.43548 -153.31755 36718 ft 486 kts 243°
2026-05-05 22:35 67.40610 -153.47603 36698 ft 486 kts 243°
2026-05-05 22:35 67.37658 -153.63402 36697 ft 486 kts 242°
2026-05-05 22:36 67.34690 -153.79167 36697 ft 486 kts 242°
2026-05-05 22:36 67.31705 -153.94901 36703 ft 487 kts 242°
2026-05-05 22:37 67.28703 -154.10603 36700 ft 486 kts 242°
2026-05-05 22:37 67.25687 -154.26262 36712 ft 486 kts 242°
2026-05-05 22:38 67.22656 -154.41882 36710 ft 486 kts 242°
2026-05-05 22:38 67.19609 -154.57463 36717 ft 487 kts 242°
2026-05-05 22:39 67.16542 -154.73030 36717 ft 487 kts 242°
2026-05-05 22:39 67.13463 -154.88541 36718 ft 487 kts 242°
2026-05-05 22:40 67.10369 -155.04014 36726 ft 487 kts 242°
2026-05-05 22:40 67.07260 -155.19447 36735 ft 486 kts 241°
2026-05-05 22:41 67.04140 -155.34819 36744 ft 486 kts 241°
2026-05-05 22:41 67.01000 -155.50184 36757 ft 488 kts 241°
2026-05-05 22:42 66.97861 -155.65427 36766 ft 488 kts 241°
2026-05-05 22:42 66.94687 -155.80732 36774 ft 488 kts 241°
2026-05-05 22:43 66.91499 -155.95993 36782 ft 488 kts 241°
2026-05-05 22:43 66.88289 -156.11246 36785 ft 488 kts 240°
2026-05-05 22:44 66.85075 -156.26409 36797 ft 487 kts 240°
2026-05-05 22:44 66.81847 -156.41533 36803 ft 486 kts 240°
2026-05-05 22:45 66.78611 -156.56586 36809 ft 486 kts 240°
2026-05-05 22:45 66.75364 -156.71589 36814 ft 485 kts 240°
2026-05-05 22:46 66.72656 -156.84016 36813 ft 485 kts 240°
2026-05-05 22:46 66.68835 -157.01430 36815 ft 485 kts 240°
2026-05-05 22:47 66.65572 -157.16191 36815 ft 484 kts 240°
2026-05-05 22:47 66.62276 -157.30999 36806 ft 484 kts 240°
2026-05-05 22:48 66.59502 -157.43382 36807 ft 484 kts 240°
2026-05-05 22:48 66.56183 -157.58107 36807 ft 484 kts 239°
2026-05-05 22:49 66.52847 -157.72807 36806 ft 484 kts 239°
2026-05-05 22:49 66.49496 -157.87475 36805 ft 485 kts 239°
2026-05-05 22:50 66.46132 -158.02093 36807 ft 485 kts 239°
2026-05-05 22:50 66.42758 -158.16663 36810 ft 484 kts 239°
2026-05-05 22:51 66.39371 -158.31187 36818 ft 484 kts 239°
2026-05-05 22:51 66.35966 -158.45695 36822 ft 485 kts 239°
2026-05-05 22:52 66.32568 -158.60075 36828 ft 485 kts 239°
2026-05-05 22:52 66.29130 -158.74529 36833 ft 486 kts 239°
2026-05-05 22:53 66.25679 -158.88939 36841 ft 485 kts 239°
2026-05-05 22:53 66.22214 -159.03317 36842 ft 486 kts 239°
2026-05-05 22:54 66.18733 -159.17665 36846 ft 486 kts 239°
2026-05-05 22:54 66.15234 -159.31990 36854 ft 486 kts 239°
2026-05-05 22:55 66.11723 -159.46273 36868 ft 486 kts 239°
2026-05-05 22:55 66.08225 -159.60412 36892 ft 486 kts 239°
2026-05-05 22:56 66.04688 -159.74615 36913 ft 487 kts 239°
2026-05-05 22:56 66.01135 -159.88789 36932 ft 487 kts 239°
2026-05-05 22:57 65.97565 -160.02946 36940 ft 487 kts 239°
2026-05-05 22:57 65.93985 -160.17045 36946 ft 488 kts 239°
2026-05-05 22:58 65.90384 -160.31137 36952 ft 487 kts 239°
2026-05-05 22:58 65.86777 -160.45163 36959 ft 488 kts 238°
2026-05-05 22:59 65.83155 -160.59164 36967 ft 488 kts 238°
2026-05-05 22:59 65.79519 -160.73119 36966 ft 488 kts 238°
2026-05-05 23:00 65.74059 -160.93920 36968 ft 488 kts 238°
2026-05-05 23:00 65.70387 -161.07803 36976 ft 488 kts 238°
2026-05-05 23:01 65.66698 -161.21656 36979 ft 489 kts 238°
2026-05-05 23:01 65.62996 -161.35482 36981 ft 489 kts 238°
2026-05-05 23:02 65.59272 -161.49292 36983 ft 490 kts 238°
2026-05-05 23:02 65.55534 -161.63071 36997 ft 490 kts 238°
2026-05-05 23:03 65.51781 -161.76824 36979 ft 491 kts 238°
2026-05-05 23:03 65.48009 -161.90561 36993 ft 491 kts 238°
2026-05-05 23:04 65.44246 -162.04176 36983 ft 492 kts 238°
2026-05-05 23:04 65.40446 -162.17843 36987 ft 492 kts 238°
2026-05-05 23:05 65.36628 -162.31494 36977 ft 493 kts 238°
2026-05-05 23:05 65.32795 -162.45112 36978 ft 493 kts 237°
2026-05-05 23:06 65.28947 -162.58700 36969 ft 493 kts 237°
2026-05-05 23:06 65.25081 -162.72270 36966 ft 494 kts 237°
2026-05-05 23:07 65.21198 -162.85817 36975 ft 495 kts 237°
2026-05-05 23:07 65.17322 -162.99255 36975 ft 495 kts 237°
2026-05-05 23:08 65.13411 -163.12735 36978 ft 495 kts 237°
2026-05-05 23:08 65.09488 -163.26176 36978 ft 495 kts 237°
2026-05-05 23:09 65.05557 -163.39562 36984 ft 494 kts 237°
2026-05-05 23:09 65.01612 -163.52915 36985 ft 495 kts 237°
2026-05-05 23:10 64.97680 -163.66148 36983 ft 494 kts 237°
2026-05-05 23:10 64.93720 -163.79394 36982 ft 494 kts 237°
2026-05-05 23:11 64.89749 -163.92600 36982 ft 494 kts 237°
2026-05-05 23:11 64.85767 -164.05764 36989 ft 494 kts 237°
2026-05-05 23:12 64.81771 -164.18897 36989 ft 494 kts 237°
2026-05-05 23:12 64.77767 -164.31978 36994 ft 493 kts 237°
2026-05-05 23:13 64.73752 -164.45023 36989 ft 494 kts 237°
2026-05-05 23:13 64.69723 -164.58034 36984 ft 493 kts 237°
2026-05-05 23:14 64.65683 -164.71005 36987 ft 494 kts 237°
2026-05-05 23:14 64.61631 -164.83941 36991 ft 494 kts 236°
2026-05-05 23:15 64.57564 -164.96848 36991 ft 494 kts 236°
2026-05-05 23:15 64.53487 -165.09716 36994 ft 494 kts 236°
2026-05-05 23:16 64.49425 -165.22460 36989 ft 494 kts 236°
2026-05-05 23:16 64.45814 -165.35896 37007 ft 491 kts 243°
2026-05-05 23:17 64.42332 -165.49554 37001 ft 492 kts 242°
2026-05-05 23:17 64.38824 -165.63129 37003 ft 492 kts 243°
2026-05-05 23:18 64.35316 -165.76714 37004 ft 492 kts 242°
2026-05-05 23:18 64.31781 -165.90244 37013 ft 492 kts 242°
2026-05-05 23:19 64.28248 -166.03741 37025 ft 491 kts 242°
2026-05-05 23:19 64.24726 -166.17079 37027 ft 491 kts 242°
2026-05-05 23:20 64.21178 -166.30452 37035 ft 490 kts 242°
2026-05-05 23:20 64.17620 -166.43777 37039 ft 490 kts 242°
2026-05-05 23:21 64.14046 -166.57085 37042 ft 489 kts 242°
2026-05-05 23:21 64.10462 -166.70350 37045 ft 490 kts 242°
2026-05-05 23:22 64.06869 -166.83568 37049 ft 489 kts 242°
2026-05-05 23:22 64.03269 -166.96735 37049 ft 489 kts 242°
2026-05-05 23:23 63.99653 -167.09883 37053 ft 489 kts 242°
2026-05-05 23:23 63.96020 -167.23015 37057 ft 489 kts 242°
2026-05-05 23:24 63.92405 -167.36008 37056 ft 489 kts 242°
2026-05-05 23:24 63.88759 -167.49033 37061 ft 488 kts 242°
2026-05-05 23:25 63.85107 -167.62008 37061 ft 488 kts 241°
2026-05-05 23:25 63.81440 -167.74960 37067 ft 488 kts 241°
2026-05-05 23:26 63.77753 -167.87909 37066 ft 488 kts 241°
2026-05-05 23:26 63.74065 -168.00783 37070 ft 488 kts 241°
2026-05-05 23:27 63.70369 -168.13616 37067 ft 487 kts 241°
2026-05-05 23:27 63.66691 -168.26312 37067 ft 486 kts 241°
2026-05-05 23:28 63.62973 -168.39075 37074 ft 487 kts 241°
2026-05-05 23:28 63.59243 -168.51806 37070 ft 487 kts 240°
2026-05-05 23:29 63.55507 -168.64487 37073 ft 486 kts 240°
2026-05-05 23:29 63.51765 -168.77116 37073 ft 486 kts 240°
2026-05-05 23:30 63.48647 -168.87585 37089 ft 486 kts 240°
2026-05-05 23:30 63.44252 -169.02261 37085 ft 486 kts 240°
2026-05-05 23:31 63.40500 -169.14716 37084 ft 487 kts 240°
2026-05-05 23:31 63.36708 -169.27234 37081 ft 487 kts 240°
2026-05-05 23:32 63.32905 -169.39717 37087 ft 487 kts 240°
2026-05-05 23:32 63.29083 -169.52196 37081 ft 487 kts 239°
2026-05-05 23:33 63.25257 -169.64616 37083 ft 487 kts 239°
2026-05-05 23:33 63.21424 -169.76996 37087 ft 486 kts 239°
2026-05-05 23:34 63.17585 -169.89325 37086 ft 486 kts 239°
2026-05-05 23:34 63.13731 -170.01635 37086 ft 486 kts 239°
2026-05-05 23:35 63.09868 -170.13909 37091 ft 486 kts 239°
2026-05-05 23:35 63.06650 -170.24083 37092 ft 486 kts 239°
2026-05-05 23:36 63.02774 -170.36274 37095 ft 485 kts 239°
2026-05-05 23:36 62.98896 -170.48409 37092 ft 484 kts 238°
2026-05-05 23:37 62.95015 -170.60487 37101 ft 483 kts 238°
2026-05-05 23:37 62.91124 -170.72536 37101 ft 483 kts 238°
2026-05-05 23:38 62.87226 -170.84541 37099 ft 483 kts 238°
2026-05-05 23:38 62.83316 -170.96518 37104 ft 483 kts 238°
2026-05-05 23:39 62.79397 -171.08461 37117 ft 483 kts 238°
2026-05-05 23:39 62.75464 -171.20386 37116 ft 484 kts 237°
2026-05-05 23:40 62.71545 -171.32203 37111 ft 484 kts 237°
2026-05-05 23:40 62.67592 -171.44063 37109 ft 484 kts 237°
2026-05-05 23:41 62.63631 -171.55885 37106 ft 483 kts 237°
2026-05-05 23:41 62.59666 -171.67657 37106 ft 482 kts 237°
2026-05-05 23:42 62.55711 -171.79407 37113 ft 482 kts 237°
2026-05-05 23:42 62.51746 -171.91125 37108 ft 482 kts 237°
2026-05-05 23:43 62.47771 -172.02804 37108 ft 482 kts 237°
2026-05-05 23:43 62.43789 -172.14454 37112 ft 481 kts 236°
2026-05-05 23:44 62.39805 -172.26041 37112 ft 481 kts 236°
2026-05-05 23:44 62.35808 -172.37613 37109 ft 480 kts 236°
2026-05-05 23:45 62.31829 -172.49074 37111 ft 481 kts 236°
2026-05-05 23:45 62.27818 -172.60570 37113 ft 480 kts 236°
2026-05-05 23:46 62.23799 -172.72030 37113 ft 480 kts 236°
2026-05-05 23:46 62.19769 -172.83463 37111 ft 480 kts 236°
2026-05-05 23:47 62.15730 -172.94864 37114 ft 480 kts 235°
2026-05-05 23:47 62.11709 -173.06160 37118 ft 481 kts 235°
2026-05-05 23:48 62.07646 -173.17517 37117 ft 480 kts 235°
2026-05-05 23:48 62.03583 -173.28818 37116 ft 480 kts 235°
2026-05-05 23:49 61.99513 -173.40082 37122 ft 480 kts 235°
2026-05-05 23:49 61.95427 -173.51336 37122 ft 480 kts 234°
2026-05-05 23:50 61.91341 -173.62535 37122 ft 479 kts 234°
2026-05-05 23:50 61.87244 -173.73708 37126 ft 480 kts 234°
2026-05-05 23:51 61.83159 -173.84794 37125 ft 479 kts 234°
2026-05-05 23:51 61.79044 -173.95909 37128 ft 480 kts 234°
2026-05-05 23:52 61.74919 -174.06994 37127 ft 480 kts 234°
2026-05-05 23:52 61.70778 -174.18072 37125 ft 480 kts 234°
2026-05-05 23:53 61.66636 -174.29098 37125 ft 480 kts 233°
2026-05-05 23:53 61.62479 -174.40107 37122 ft 480 kts 233°
2026-05-05 23:54 61.58339 -174.51025 37124 ft 480 kts 233°
2026-05-05 23:54 61.54162 -174.61952 37129 ft 480 kts 233°
2026-05-05 23:55 61.49983 -174.72837 37132 ft 479 kts 233°
2026-05-05 23:55 61.45788 -174.83714 37133 ft 480 kts 233°
2026-05-05 23:56 61.41583 -174.94559 37134 ft 480 kts 233°
2026-05-05 23:56 61.37375 -175.05367 37145 ft 480 kts 233°
2026-05-05 23:57 61.33152 -175.16156 37141 ft 480 kts 233°
2026-05-05 23:57 61.28929 -175.26902 37146 ft 480 kts 233°
2026-05-05 23:58 61.24719 -175.37559 37143 ft 480 kts 232°
2026-05-05 23:58 61.20478 -175.48245 37147 ft 479 kts 232°
2026-05-05 23:59 61.16236 -175.58886 37143 ft 479 kts 232°
2026-05-05 23:59 61.11976 -175.69522 37143 ft 480 kts 232°
2026-05-06 00:00 61.07708 -175.80127 37145 ft 479 kts 232°
2026-05-06 00:00 61.03430 -175.90709 37146 ft 480 kts 232°
2026-05-06 00:01 60.99133 -176.01287 37147 ft 481 kts 232°
2026-05-06 00:01 60.94853 -176.11777 37150 ft 481 kts 232°
2026-05-06 00:02 60.90546 -176.22284 37150 ft 480 kts 232°
2026-05-06 00:02 60.86234 -176.32755 37156 ft 481 kts 232°
2026-05-06 00:03 60.81904 -176.43221 37156 ft 481 kts 232°
2026-05-06 00:03 60.77564 -176.53662 37160 ft 481 kts 232°
2026-05-06 00:04 60.73220 -176.64068 37160 ft 480 kts 232°
2026-05-06 00:04 60.68881 -176.74414 37158 ft 479 kts 232°
2026-05-06 00:05 60.62358 -176.89879 37159 ft 479 kts 232°
2026-05-06 00:06 60.58000 -177.00151 37162 ft 479 kts 232°
2026-05-06 00:06 60.53667 -177.10323 37165 ft 479 kts 232°
2026-05-06 00:07 60.49298 -177.20529 37161 ft 479 kts 232°
2026-05-06 00:07 60.44921 -177.30709 37172 ft 479 kts 231°
2026-05-06 00:08 60.40532 -177.40873 37164 ft 479 kts 231°
2026-05-06 00:08 60.36139 -177.51000 37164 ft 479 kts 231°
2026-05-06 00:09 60.31735 -177.61108 37177 ft 478 kts 231°
2026-05-06 00:09 60.27336 -177.71159 37173 ft 478 kts 231°
2026-05-06 00:10 60.22937 -177.81166 37165 ft 477 kts 231°
2026-05-06 00:10 60.18557 -177.91188 37164 ft 475 kts 233°
2026-05-06 00:11 60.14331 -178.01313 37167 ft 476 kts 232°
2026-05-06 00:11 60.10059 -178.11450 37168 ft 475 kts 233°
2026-05-06 00:12 60.05802 -178.21568 37170 ft 475 kts 232°
2026-05-06 00:12 60.01522 -178.31645 37500 ft 473 kts 232°
2026-05-06 00:12 59.99399 -178.36647 37792 ft 472 kts 232°
2026-05-06 00:13 59.97279 -178.41627 38024 ft 472 kts 232°
2026-05-06 00:13 59.95141 -178.46630 38234 ft 472 kts 232°
2026-05-06 00:13 59.93005 -178.51616 38464 ft 473 kts 232°
2026-05-06 00:13 59.90867 -178.56603 38679 ft 473 kts 232°
2026-05-06 00:14 59.88727 -178.61583 38873 ft 473 kts 232°
2026-05-06 00:14 59.86587 -178.66552 39049 ft 473 kts 232°
2026-05-06 00:14 59.84443 -178.71515 39226 ft 473 kts 231°
2026-05-06 00:14 59.82297 -178.76475 39399 ft 473 kts 231°
2026-05-06 00:15 59.80177 -178.81367 39560 ft 473 kts 231°
2026-05-06 00:15 59.78031 -178.86305 39733 ft 472 kts 231°
2026-05-06 00:15 59.75881 -178.91243 39891 ft 472 kts 231°
2026-05-06 00:15 59.73731 -178.96170 40070 ft 472 kts 231°
2026-05-06 00:16 59.71582 -179.01084 40222 ft 472 kts 231°
2026-05-06 00:16 59.69430 -179.05995 40407 ft 472 kts 231°
2026-05-06 00:16 59.67278 -179.10894 40555 ft 472 kts 231°
2026-05-06 00:16 59.65121 -179.15794 40710 ft 472 kts 231°
2026-05-06 00:17 59.62963 -179.20686 40855 ft 472 kts 231°
2026-05-06 00:17 59.60801 -179.25580 41009 ft 472 kts 231°
2026-05-06 00:17 59.58639 -179.30460 41122 ft 473 kts 231°
2026-05-06 00:18 59.54280 -179.40271 41159 ft 476 kts 231°
2026-05-06 00:18 59.49959 -179.49951 41161 ft 471 kts 231°
2026-05-06 00:19 59.45638 -179.59595 41160 ft 470 kts 231°
2026-05-06 00:19 59.41275 -179.69289 41163 ft 470 kts 230°
2026-05-06 00:20 59.36971 -179.78814 41155 ft 470 kts 230°
2026-05-06 00:20 59.32627 -179.88387 41153 ft 470 kts 230°
2026-05-06 00:21 59.28279 -179.97929 41153 ft 469 kts 230°
2026-05-06 00:21 59.23926 179.92558 41154 ft 468 kts 230°
2026-05-06 00:22 59.19583 179.83107 41154 ft 468 kts 230°
2026-05-06 00:22 59.15230 179.73672 41151 ft 467 kts 230°
2026-05-06 00:23 59.10876 179.64274 41148 ft 467 kts 230°
2026-05-06 00:23 59.06513 179.54894 41152 ft 468 kts 230°
2026-05-06 00:24 59.02134 179.45520 41145 ft 469 kts 229°
2026-05-06 00:24 58.97742 179.36156 41144 ft 469 kts 229°
2026-05-06 00:25 58.94082 179.28381 41146 ft 470 kts 229°
2026-05-06 00:25 58.89668 179.19039 41149 ft 470 kts 229°
2026-05-06 00:26 58.85241 179.09710 41140 ft 470 kts 229°
2026-05-06 00:26 58.80821 179.00432 41133 ft 469 kts 229°
2026-05-06 00:27 58.76403 178.91196 41135 ft 468 kts 229°
2026-05-06 00:27 58.71988 178.82002 41131 ft 468 kts 229°
2026-05-06 00:28 58.67554 178.72806 41135 ft 468 kts 229°
2026-05-06 00:28 58.63117 178.63642 41131 ft 468 kts 229°
2026-05-06 00:29 58.58703 178.54562 41116 ft 468 kts 228°
2026-05-06 00:29 58.54257 178.45451 41115 ft 468 kts 228°
2026-05-06 00:30 58.49797 178.36347 41125 ft 469 kts 228°
2026-05-06 00:30 58.45318 178.27242 41120 ft 470 kts 228°
2026-05-06 00:31 58.40826 178.18146 41119 ft 470 kts 228°
2026-05-06 00:31 58.36367 178.09154 41129 ft 469 kts 227°
2026-05-06 00:32 58.31870 178.00121 41112 ft 470 kts 227°
2026-05-06 00:32 58.27375 177.91128 41113 ft 469 kts 227°
2026-05-06 00:33 58.22876 177.82161 41107 ft 468 kts 227°
2026-05-06 00:33 58.18383 177.73240 41107 ft 468 kts 227°
2026-05-06 00:34 58.13904 177.64385 41102 ft 468 kts 227°
2026-05-06 00:34 58.09396 177.55505 41094 ft 467 kts 227°
2026-05-06 00:35 58.04890 177.46663 41094 ft 467 kts 227°
2026-05-06 00:35 58.00382 177.37851 41091 ft 467 kts 226°
2026-05-06 00:36 57.95866 177.29060 41093 ft 466 kts 226°
2026-05-06 00:36 57.91350 177.20299 41088 ft 466 kts 226°
2026-05-06 00:37 57.86833 177.11573 41078 ft 465 kts 226°